Погода в Арпачине

Россия / Ростовская область     47°13′23″N   40°10′45″E
темп.,
°C
ветер,
м/с
пор.,
м/с
влажн.,
%
обл.,
%
осадки,
мм/ч
давл.,
гПа
погр.,
м
24 сентября, пт
пт2400:00+13юв3581100 2.1 1012310
03:00+12юв2288100 2.8 101265
06:00+12юв3591100 1.1 1012191
09:00+15юз23695 2.4 1012465
12:00+18юз454659 0.2 10111969
15:00+17зюз574986 0.2 10111455
18:00+15зюз474685 0.0 1011288
21:00+14юз5965100 0.0 1011711
25 сентября, сб
сб2500:00+12ююз4676100 0.4 1010459
03:00+13ю51082100 0.8 1008752
06:00+12юз5990100 1.8 1007562
09:00+14з686393 1.9 1008916
12:00+17з6750100 0.0 10101700
15:00+17з6746100 0.0 10111881
18:00+15з475853 0.0 1012238
21:00+14зюз366583 0.1 1014174
26 сентября, вс
вс2600:00+12зюз357179 0.0 101598
03:00+13зюз496797 0.1 1016390
06:00+13зюз5106691 0.0 1016429
09:00+14зюз61066100 0.0 1016918
12:00+14юз71372100 0.2 10151108
15:00+17з9127275 0.8 10131143
18:00+17з71364100 0.5 1011623
21:00+14сз5106592 0.6 1013324
27 сентября, пн
пн2700:00+12зсз512654 0.0 1014471
03:00+10зсз410725 0.0 1014261
06:00+9зсз511735 0.0 1015377
09:00+13сз68626 0.0 1016780
12:00+15сз675380 0.0 10171228
15:00+16ссз6654100 0.1 10171389
18:00+14с465789 0.1 1018386
21:00+11с23735 0.1 102040
28 сентября, вт
вт2800:00+11с22775 0.0 102028
03:00+10ссв33825 0.0 102147
06:00+9св33795 0.0 102249
09:00+14св35525 0.0 1022570
12:00+17св44385 0.0 10221804
15:00+19ссв443317 0.0 10222140
18:00+15ссв594616 0.0 1023283
21:00+12св38605 0.0 1024181